Weather History for Marshalltown, IA

Change the Weather History Date:

Tuesday, November 1, 2011

  Actual Average Record
Temperature  
Mean Temperature 55 °F 44 °F  
Max Temperature 72 °F 54 °F 73 °F (2000)
Min Temperature 38 °F 33 °F 18 °F (1996)
Degree Days  
Heating Degree Days 10 21  
Month to date heating degree days 10 21  
Since 1 July heating degree days 579 654  
Cooling Degree Days 0 0  
Month to date cooling degree days 0 0  
Year to date cooling degree days 896 728  
Growing Degree Days 6 (Base 50)    
Moisture  
Dew Point 38 °F    
Average Humidity 56    
Maximum Humidity 70    
Minimum Humidity 41    
Precipitation  
Precipitation 0.00 in 0.11 in 1.23 in (2004)
Month to date precipitation 0.00 0.11  
Year to date precipitation 22.83  
Sea Level Pressure  
Sea Level Pressure 29.92 in    
Wind  
Wind Speed 10 mph (South)    
Max Wind Speed 20 mph    
Max Gust Speed 24 mph    
Visibility 10 miles    
Events      
T = Trace of Precipitation, MM = Missing Value Source: NWS Daily Summary

Daily Weather History Graph

Daily Weather History Graph

Search for Another Location

Airport:

Trip Planner

Search our weather history database for the weather conditions in past years. The results will help you decide how hot, cold, wet, or windy it might be!

Date:

Astronomy

Nov. 01, 2011 Rise Set
Actual Time 7:44 AM CDT 6:05 PM CDT
Civil Twilight 7:15 AM CDT 6:34 PM CDT
Nautical Twilight 6:42 AM CDT 7:07 PM CDT
Astronomical Twilight 6:09 AM CDT 7:40 PM CDT
Moon 1:32 PM CDT (11/1) 11:48 PM CDT (11/1)
Length of Visible Light 11h 19m
Length of Day
10h 21m
Waxing Crescent, 40% of the Moon is Illuminated
Nov 1
Waxing Crescent
Nov 2
First Quarter
Nov 10
Full
Nov 18
Last Quarter
Nov 25
New

Hourly Weather History & Observations

Time (CDT) Temp. Windchill Dew Point Humidity Pressure Visibility Wind Dir Wind Speed Gust Speed Precip Events Conditions
12:53 AM 39.9 °F 33.4 °F 28.0 °F 63% 30.00 in 10.0 mi SE 10.4 mph - N/A   Clear
1:53 AM 41.0 °F 34.7 °F 28.0 °F 60% 29.99 in 10.0 mi SE 10.4 mph - N/A   Clear
2:53 AM 41.0 °F 34.7 °F 28.0 °F 60% 29.98 in 10.0 mi SE 10.4 mph - N/A   Clear
3:53 AM 39.9 °F 32.9 °F 28.9 °F 65% 29.96 in 10.0 mi SE 11.5 mph - N/A   Clear
4:53 AM 39.9 °F 33.9 °F 28.9 °F 65% 29.95 in 10.0 mi SE 9.2 mph - N/A   Clear
5:53 AM 41.0 °F 34.3 °F 28.9 °F 62% 29.95 in 10.0 mi SSE 11.5 mph - N/A   Clear
6:53 AM 39.9 °F 32.5 °F 30.0 °F 68% 29.94 in 10.0 mi SSE 12.7 mph - N/A   Clear
7:53 AM 39.9 °F 32.5 °F 30.9 °F 70% 29.95 in 10.0 mi SSE 12.7 mph - N/A   Clear
8:53 AM 45.0 °F 40.1 °F 34.0 °F 65% 29.95 in 10.0 mi SSE 9.2 mph - N/A   Clear
10:53 AM 57.0 °F - 41.0 °F 55% 29.93 in 10.0 mi South 12.7 mph - N/A   Clear
11:53 AM 63.0 °F - 43.0 °F 48% 29.91 in 10.0 mi South 12.7 mph - N/A   Clear
2:53 PM 72.0 °F - 46.0 °F 40% 29.84 in 10.0 mi SSW 17.3 mph 20.7 mph N/A   Clear
3:53 PM 72.0 °F - 46.0 °F 40% 29.84 in 10.0 mi SSW 13.8 mph 23.0 mph N/A   Clear
4:53 PM 71.1 °F - 46.0 °F 41% 29.85 in 10.0 mi SW 10.4 mph - N/A   Clear
5:53 PM 64.9 °F - 45.0 °F 48% 29.86 in 10.0 mi WSW 4.6 mph - N/A   Clear
6:53 PM 60.1 °F - 44.1 °F 55% 29.88 in 10.0 mi WNW 5.8 mph - N/A   Clear
7:53 PM 60.1 °F - 45.0 °F 57% 29.89 in 10.0 mi Calm Calm - N/A   Overcast
8:53 PM 57.9 °F - 45.0 °F 62% 29.90 in 10.0 mi Calm Calm - N/A   Overcast
9:53 PM 53.1 °F - 41.0 °F 64% 29.92 in 10.0 mi North 10.4 mph - N/A   Overcast
10:53 PM 53.1 °F - 39.9 °F 61% 29.92 in 10.0 mi North 8.1 mph - N/A   Overcast
11:53 PM 51.1 °F - 39.9 °F 66% 29.92 in 10.0 mi NNW 5.8 mph - N/A   Overcast